Stations météo

réclame
Mon MeteoGroup
Landsberg, Allemagne (10857): Température de l'air & dewpoint: 11.10.2017 11:00:00 - 17.10.2017 11:00:00 (CEST)Landsberg, Allemagne (10857): Vitesse du vent & gusts: 11.10.2017 11:00:00 - 17.10.2017 11:00:00 (CEST)Landsberg, Allemagne (10857): Direction du vent: 11.10.2017 11:00:00 - 17.10.2017 11:00:00 (CEST)Landsberg, Allemagne (10857): reduced air pressure: 11.10.2017 11:00:00 - 17.10.2017 11:00:00 (CEST)Landsberg, Allemagne (10857): visibility: 11.10.2017 11:00:00 - 17.10.2017 11:00:00 (CEST)
Date & Time tt [°C] td [°C] ff [km/h] ff [knt] fx [km/h] fx [knt] dd ppp [hPa] vv [km]
17.10.2017 11:00:00 16,3 7,6 4 2 - - S 1024,3 75
17.10.2017 10:00:00 12,9 7,8 7 4 - - S 1025,5 75
17.10.2017 09:00:00 8,1 5,5 7 4 - - S 1027,0 75
17.10.2017 08:00:00 6,5 4,9 7 4 - - SSE 1027,1 75
17.10.2017 07:00:00 6,8 5,0 4 2 - - S 1027,1 30
17.10.2017 06:00:00 7,0 5,5 4 2 - - N 1027,2 20
17.10.2017 05:00:00 5,8 4,8 7 4 - - SE 1027,4 3,8
17.10.2017 04:00:00 7,1 5,6 7 4 - - S 1027,1 3,9
17.10.2017 03:00:00 7,5 5,6 7 4 - - S 1027,3 3,9
17.10.2017 02:00:00 8,1 6,3 7 4 - - SSE 1027,4 3,9
17.10.2017 01:00:00 8,9 7,3 7 4 - - S 1027,2 4,0
17.10.2017 00:00:00 9,5 7,2 11 6 - - S 1027,5 3,8
16.10.2017 23:00:00 10,6 8,4 7 4 - - SE 1027,3 3,8
16.10.2017 22:00:00 11,4 8,7 11 6 - - SSE 1027,0 3,9
16.10.2017 21:00:00 12,0 9,3 7 4 - - SSE 1027,0 3,7
16.10.2017 20:00:00 13,5 9,5 7 4 - - ESE 1026,6 3,8
16.10.2017 19:00:00 17,1 9,5 7 4 - - ENE 1025,4 75
16.10.2017 18:00:00 20,8 10,4 7 4 - - NNE 1024,3 75
16.10.2017 17:00:00 22,6 9,4 11 6 - - NNE 1023,9 40
16.10.2017 16:00:00 23,4 8,3 7 4 - - N 1023,8 40
16.10.2017 15:00:00 24,3 5,7 4 2 - - NE 1023,7 40
16.10.2017 14:00:00 23,2 6,5 4 2 - - NNE 1024,5 40
16.10.2017 13:00:00 22,5 6,1 7 4 - - N 1025,2 40
16.10.2017 12:00:00 21,4 8,5 4 2 - - N 1025,7 30
16.10.2017 11:00:00 18,3 9,5 7 4 - - SE 1026,5 30
16.10.2017 10:00:00 14,0 8,9 7 4 - - SE 1027,7 30
16.10.2017 09:00:00 9,5 6,3 7 4 - - S 1028,7 30
16.10.2017 08:00:00 8,1 5,3 7 4 - - S 1028,8 30
16.10.2017 07:00:00 9,0 6,0 11 6 - - S 1028,5 20
16.10.2017 06:00:00 9,0 6,0 11 6 - - S 1028,4 20
16.10.2017 05:00:00 9,8 6,7 11 6 - - S 1028,2 20
16.10.2017 04:00:00 8,7 7,0 11 6 - - S 1028,5 20
16.10.2017 03:00:00 8,2 6,8 7 4 - - SSE 1028,9 20
16.10.2017 02:00:00 9,2 8,3 7 4 - - S 1028,6 20
16.10.2017 01:00:00 9,2 8,1 11 6 - - S 1028,5 20
16.10.2017 00:00:00 9,8 8,4 14 8 - - S 1028,4 20
15.10.2017 23:00:00 10,6 9,2 7 4 - - SW 1027,9 20
15.10.2017 22:00:00 10,8 9,3 7 4 - - SE 1027,6 20
15.10.2017 21:00:00 12,3 10,5 7 4 - - S 1027,1 3,9
15.10.2017 20:00:00 12,8 11,1 7 4 - - SE 1026,9 3,9
15.10.2017 19:00:00 15,9 11,4 4 2 - - E 1025,9 4,2
15.10.2017 18:00:00 20,2 12,0 7 4 - - ENE 1024,7 3,7
15.10.2017 17:00:00 21,3 11,9 7 4 - - N 1024,4 3,9
15.10.2017 16:00:00 20,8 11,8 7 4 - - NE 1024,9 4,0
15.10.2017 15:00:00 20,8 11,9 7 4 - - NNE 1025,2 3,8
15.10.2017 14:00:00 20,0 10,4 4 2 - - NNE 1025,9 3,8
15.10.2017 13:00:00 18,9 10,7 4 2 - - ESE 1026,6 3,7
15.10.2017 12:00:00 17,2 10,6 7 4 - - N 1027,4 4,0
15.10.2017 11:00:00 15,0 10,0 7 4 - - WSW 1027,9 4,0
15.10.2017 10:00:00 12,9 9,7 7 4 - - S 1028,2 4,3
15.10.2017 09:00:00 8,9 7,4 7 4 - - S 1029,0 4,0
15.10.2017 08:00:00 6,5 6,1 7 4 - - SSW 1029,5 3,5
15.10.2017 07:00:00 6,1 5,6 4 2 - - N 1029,8 2,5
15.10.2017 06:00:00 6,4 6,1 4 2 - - SSE 1030,0 0,8
15.10.2017 05:00:00 6,2 5,7 7 4 - - SE 1029,8 3,1
15.10.2017 04:00:00 6,4 5,6 4 2 - - SSE 1030,1 3,0
15.10.2017 03:00:00 7,2 6,7 4 2 - - SE 1030,0 0,6
15.10.2017 02:00:00 6,9 6,4 4 2 - - SSW 1030,1 3,5
15.10.2017 01:00:00 7,8 7,2 4 2 - - ESE 1029,8 0,1
15.10.2017 00:00:00 8,8 8,0 4 2 - - S 1029,5 3,1
14.10.2017 23:00:00 8,9 8,1 4 2 - - SSE 1029,7 3,4
14.10.2017 22:00:00 9,9 8,8 7 4 - - SE 1029,3 3,6
14.10.2017 21:00:00 10,9 9,7 4 2 - - SE 1028,9 3,6
14.10.2017 20:00:00 12,7 10,5 4 2 - - E 1028,4 3,7
14.10.2017 19:00:00 15,2 10,9 7 4 - - NNE 1027,3 3,8
14.10.2017 18:00:00 18,1 11,0 11 6 - - NNE 1026,4 3,8
14.10.2017 17:00:00 19,3 10,7 11 6 - - NNE 1026,3 4,0
14.10.2017 16:00:00 19,5 9,9 11 6 - - NE 1026,3 4,0
14.10.2017 15:00:00 19,9 8,7 7 4 - - NNE 1026,5 3,8
14.10.2017 14:00:00 19,2 10,4 7 4 - - N 1026,7 3,6
14.10.2017 13:00:00 18,7 11,4 7 4 - - N 1027,3 3,8
14.10.2017 12:00:00 17,1 10,8 4 2 - - NNE 1028,0 3,8
14.10.2017 11:00:00 15,7 10,1 4 2 - - N 1028,5 3,8
14.10.2017 10:00:00 12,2 9,6 4 2 - - N 1029,4 4,1
14.10.2017 09:00:00 7,8 6,4 4 2 - - SSE 1030,4 3,6
14.10.2017 08:00:00 5,8 5,4 4 2 - - SSE 1030,7 3,0
14.10.2017 07:00:00 5,5 5,0 4 2 - - SSE 1030,7 3,3
14.10.2017 06:00:00 5,9 5,4 7 4 - - SSE 1030,3 2,6
14.10.2017 05:00:00 6,6 5,8 4 2 - - S 1030,1 1,3
14.10.2017 04:00:00 6,5 5,6 7 4 - - SSE 1030,0 3,2
14.10.2017 03:00:00 7,6 6,7 4 2 - - SSE 1029,9 3,4
14.10.2017 02:00:00 7,2 6,0 7 4 - - S 1030,2 3,6
14.10.2017 01:00:00 8,1 7,3 4 2 - - SSE 1029,9 3,5
14.10.2017 00:00:00 7,7 6,9 7 4 - - SE 1029,9 4,0
13.10.2017 23:00:00 9,0 7,5 4 2 - - N 1029,7 1,9
13.10.2017 22:00:00 9,0 7,8 7 4 - - SSE 1029,6 3,8
13.10.2017 21:00:00 9,5 8,2 7 4 - - SE 1029,5 3,9
13.10.2017 20:00:00 10,9 8,4 4 2 - - SE 1028,7 3,6
13.10.2017 19:00:00 13,2 8,5 7 4 - - N 1027,6 3,9
13.10.2017 18:00:00 16,9 8,2 7 4 - - NW 1026,3 3,9
13.10.2017 17:00:00 17,2 8,3 7 4 - - NNW 1026,2 3,9
13.10.2017 16:00:00 17,1 8,9 7 4 - - W 1026,5 4,2
13.10.2017 15:00:00 17,7 8,7 11 6 - - WNW 1026,6 3,9
13.10.2017 14:00:00 16,5 8,3 11 6 - - W 1027,1 25
13.10.2017 13:00:00 16,3 9,0 7 4 - - WSW 1027,5 25
13.10.2017 12:00:00 15,1 9,1 4 2 - - N 1028,3 25
13.10.2017 11:00:00 14,0 9,3 7 4 - - SW 1028,7 25
13.10.2017 10:00:00 12,1 9,4 7 4 - - S 1029,3 25
13.10.2017 09:00:00 9,1 7,5 4 2 - - SE 1029,7 20
13.10.2017 08:00:00 7,1 6,8 7 4 - - SSE 1029,6 15
13.10.2017 07:00:00 7,4 6,9 7 4 - - S 1029,5 30
13.10.2017 06:00:00 7,8 7,3 7 4 - - S 1029,3 20
13.10.2017 05:00:00 8,9 8,2 7 4 - - SSW 1029,0 20
13.10.2017 04:00:00 9,0 7,9 4 2 - - S 1029,1 20
13.10.2017 03:00:00 11,2 9,2 7 4 - - SSW 1028,7 20
13.10.2017 02:00:00 11,5 9,5 7 4 - - SSW 1028,6 20
13.10.2017 01:00:00 12,4 9,7 7 4 - - SW 1028,3 20
13.10.2017 00:00:00 12,3 9,6 7 4 - - SW 1028,0 20
12.10.2017 23:00:00 12,5 9,8 11 6 - - SW 1027,6 20
12.10.2017 22:00:00 13,2 9,5 7 4 - - WSW 1027,1 20
12.10.2017 21:00:00 13,7 9,6 14 8 - - WSW 1026,5 30
12.10.2017 20:00:00 13,3 9,8 11 6 - - SW 1026,1 40
12.10.2017 19:00:00 14,0 9,7 11 6 - - SW 1025,7 40
12.10.2017 18:00:00 15,6 9,6 18 10 - - WSW 1025,1 40
12.10.2017 17:00:00 15,9 9,6 22 12 - - WSW 1024,8 10
12.10.2017 16:00:00 15,6 9,7 25 14 - - WSW 1024,9 40
12.10.2017 15:00:00 15,7 9,5 29 16 - - WSW 1024,8 40
12.10.2017 14:00:00 15,3 9,8 25 14 - - W 1024,8 40
12.10.2017 13:00:00 15,7 9,0 32 18 50 27 WSW 1024,5 40
12.10.2017 12:00:00 16,7 8,5 36 19 54 29 WSW 1023,5 40
12.10.2017 11:00:00 16,4 8,2 25 14 - - SW 1022,8 60
12.10.2017 10:00:00 15,4 7,5 25 14 - - SW 1022,4 60
12.10.2017 09:00:00 13,4 6,1 18 10 - - SW 1022,1 75
12.10.2017 08:00:00 11,9 5,6 18 10 - - SW 1021,7 75
12.10.2017 07:00:00 10,3 5,0 18 10 - - SSW 1021,8 40
12.10.2017 06:00:00 10,9 5,6 11 6 - - SW 1021,7 20
12.10.2017 05:00:00 11,8 6,1 14 8 - - SW 1021,4 20
12.10.2017 04:00:00 10,2 6,3 14 8 - - SSW 1021,7 20
12.10.2017 03:00:00 10,9 6,3 18 10 - - SSW 1021,6 20
12.10.2017 02:00:00 11,0 5,9 22 12 - - SSW 1021,3 20
12.10.2017 01:00:00 11,0 6,0 14 8 - - SSW 1021,2 20
12.10.2017 00:00:00 8,5 5,9 14 8 - - S 1021,9 20
11.10.2017 23:00:00 9,2 6,0 14 8 - - S 1021,8 20
11.10.2017 22:00:00 9,3 6,3 11 6 - - S 1021,4 20
11.10.2017 21:00:00 9,7 7,1 11 6 - - SSW 1021,1 20
11.10.2017 20:00:00 10,8 7,9 11 6 - - S 1020,6 20
11.10.2017 19:00:00 13,5 7,7 7 4 - - SSW 1019,7 75
11.10.2017 18:00:00 16,9 6,9 11 6 - - WSW 1018,8 75
11.10.2017 17:00:00 17,7 7,1 11 6 - - WSW 1018,5 75
11.10.2017 16:00:00 17,4 6,7 14 8 - - WSW 1018,9 75
11.10.2017 15:00:00 17,1 7,2 14 8 - - SW 1019,4 40
11.10.2017 14:00:00 16,6 7,2 18 10 - - WSW 1020,1 40
11.10.2017 13:00:00 15,6 7,0 14 8 - - WSW 1020,8 40
11.10.2017 12:00:00 15,1 7,7 14 8 - - WSW 1021,3 40
11.10.2017 11:00:00 13,1 6,9 14 8 - - SW 1022,0 40

tt = Température de l'air
td = dewpoint
ff = Vitesse du vent
fx = gusts
dd = Direction du vent
ppp = reduced air pressure
vv = visibility

stations d'obs. à proximité